Regional Weather Roundup
Issued by NWS

Home | Current Version | Previous Version | Text Only | Print | Product List | Glossary On
Versions: 1 2 3 4 5 6 7 8 9 10 11 12 13 14 15 16 17 18 19 20 21 22 23 24 25 26 27 28 29 30 31 32 33 34 35 36 37 38 39 40 41 42 43 44 45 46 47 48 49 50
650
ASHW40 PHFO 190043
RWRHI

WEATHER ROUNDUP FOR HAWAII
NATIONAL WEATHER SERVICE HONOLULU HI
200 PM HST WED JAN 18 2017

THIS IS AN AUTOMATED REPORT THAT HAS NOT BEEN QUALITY CONTROLLED.

NOTE..."FAIR" INDICATES FEW OR NO CLOUDS BELOW 12,000 FEET WITH NO
SIGNIFICANT WEATHER AND/OR OBSTRUCTIONS TO VISIBILITY.

* - THESE SITES REPORT LIMITED FIELDS

HIZ001>004-190100-
KAUAI-NIIHAU-

CITY           SKY/WX    TMP DP  RH WIND       PRES   REMARKS
LIHUE APT      PTSUNNY   79  63  57 E9        30.09F
PORT ALLEN*      N/A     81 N/A N/A SE18G24     N/A
POIPU*           N/A     81 N/A N/A E7G15       N/A
PRINCEVILLE*     N/A     79 N/A N/A E9G18       N/A
KOKOLE POINT*  NOT AVBL
MOLOAA DAIRY*    N/A     79  64  61 E12G17      N/A
WAIMEA HTS*      N/A     84  61  45 E9G17       N/A
PUU OPAE*        N/A     75  63  64 SW7         N/A
PUU LUA*       NOT AVBL
MAKAHA RIDGE*    N/A     72  61  68 W2          N/A
$$

HIZ005>011-190100-
OAHU-

CITY           SKY/WX    TMP DP  RH WIND       PRES   REMARKS
HONOLULU       MOSUNNY   81  66  60 NE8       30.04F
KALAELOA       MOSUNNY   83  67  58 VRB6      30.07F
KANEOHE MCB    NOT AVBL
WHEELER FIELD  PTSUNNY   78  67  69 E8        30.07F
BELLOWS*         N/A    N/A N/A N/A NE6         N/A
KAHUKU*          N/A    N/A N/A N/A NE7G14      N/A
WHEELER*         N/A    N/A N/A N/A SE9G17      N/A
WAIANAE HARBOR   N/A    N/A N/A N/A W10         N/A
DILLINGHAM*      N/A     88  72  58 MISG        N/A  HX  94
KAHUKU TRN*      N/A     81  77  89 NW5G20      N/A
KAWAILOA*        N/A     73  68  83 E6G14       N/A
KII*             N/A     75  70  83 E14         N/A
MAKUA RANGE*   NOT AVBL
OAHU FOREST NW   N/A     70  66  88 E7G18       N/A
SCHOFIELD BRK*   N/A     79  66  65 MISG        N/A
SCHOFIELD S*   NOT AVBL
WAIANAE VLY*   NOT AVBL
KUAOKALA*        N/A     72   3   7 NE9G18      N/A
HONOULIUULI*   NOT AVBL
MOKUOLOE IS*   NOT AVBL
PALEHUA*         N/A     75  63  64 E3G12       N/A
WAIAWA PHB*    NOT AVBL
$$

HIZ012>013-190100-
MOLOKAI-

CITY           SKY/WX    TMP DP  RH WIND       PRES   REMARKS
MOLOKAI AIRPT  MOSUNNY   81  67  62 NE14G21   30.03F
KALAUPAPA      NOT AVBL
MAKAPULAPAI*     N/A     79  66  65 E22G31      N/A
MOLOKAI 1*     NOT AVBL
PUU ALII*        N/A     67  56  67 E3G9        N/A
$$

HIZ016-190100-
KAHOOLAWE-

CITY           SKY/WX    TMP DP  RH WIND       PRES   REMARKS
KAHOOLAWE*     NOT AVBL
HAKIOAWA*        N/A     76  65  67 MISG      30.43F
HONOKANAIA*      N/A     82  62  50 NE21G37   29.98F
KANELOA*         N/A     75  63  64 E25G41      N/A
KEALIALALO*    NOT AVBL
LUA MAKIKA*    NOT AVBL
$$

HIZ014>015-190100-
LANAI-

CITY           SKY/WX    TMP DP  RH WIND       PRES   REMARKS
LANAI CITY     FAIR      75  64  69 NE17      30.07F
LANAI 1*       NOT AVBL
$$

HIZ017>028-190100-
MAUI-

CITY           SKY/WX    TMP DP  RH WIND       PRES   REMARKS
KAHULUI        MOSUNNY   85  65  51 NE20G28   30.00F
KAPALUA-W MAUI NOT AVBL
HANA AIRPORT   NOT AVBL
HANA*            N/A     77 N/A N/A E10G22      N/A
HALEAKALA SUMM   N/A     50  -2  11 E39         N/A
MAALAEA BAY*     N/A     81 N/A N/A N14G22      N/A
HALEAKALA*     NOT AVBL
KAUPO GAP*       N/A    N/A N/A N/A NE9G28      N/A
KULA 1*          N/A    N/A N/A N/A NW6G12      N/A
$$

HIZ023>026-190100-
BIG ISLAND OF HAWAII COAST AND LOWER SLOPES-

CITY           SKY/WX    TMP DP  RH WIND       PRES   REMARKS
KAILUA KONA    MOSUNNY   81  69  67 SW12      30.00F
HILO           MOSUNNY   81  62  52 SE13      30.06F
HONOKAA*         N/A     73 N/A N/A VRB1        N/A
KAWAIHAE MWT*  NOT AVBL
KAWAIHAE*        N/A     77 N/A N/A W3        30.01F
SOUTH POINT*     N/A     75 N/A N/A N23G32      N/A
UPOLU AIRPORT* NOT AVBL
KAMUELA*       NOT AVBL
HAKALAU*         N/A     70  14  11 S6G14       N/A
KALOKO-HONOKO*   N/A     82  68  61 SW9         N/A
PALI 2*          N/A     73  54  49 W18G28      N/A
KEALAKOMO*       N/A     82  63  51 E14G24      N/A
KAUPULEHU*       N/A     73  64  73 NW10G22     N/A
KAPAPALA*      NOT AVBL
LOWER KAHUKU*    N/A     66  57  72 E5G22       N/A
PUHE CS*         N/A     81  64  57 W3          N/A
PUHO CS*         N/A     82  67  59 W3G10       N/A
PTA KEAMUKU*     N/A     72  59  64 CALM        N/A
WAIKOLOA*        N/A     77  64  65 W7G13       N/A
$$

HIZ027>028-190100-
BIG ISLAND OF HAWAII INTERIOR AND SUMMMITS-

CITY           SKY/WX    TMP DP  RH WIND       PRES   REMARKS
BRADSHAW FIELD NOT AVBL
MK VISITOR CEN   N/A     59 -17   4 E14G26      N/A
MAUNA KEA*       N/A     37 -15  10 E37         N/A  WCI  24
MAUNA LOA*       N/A     54 -33   2 MISG        N/A
MAUNA LOA 1*   NOT AVBL
PTA KIPUKA*      N/A     79  -2   4 E18G37      N/A
PTA RANGE 17*    N/A     79  -8   3 SE26G46     N/A
PTA WEST*        N/A     48  37  66 N10G18      N/A
NENE CABIN*      N/A     63  46  55 E13G25      N/A
AHUMOA*          N/A     66  56  69 VRB8        N/A
PTA PORTABLE*  NOT AVBL
PUU MALI*        N/A     72 N/A N/A E20G33      N/A
$$

HIC003-190100-
NORTHWEST ISLANDS-

CITY           SKY/WX    TMP DP  RH WIND       PRES   REMARKS
MIDWAY ISLAND  CLOUDY    70  63  78 W9        30.02F
MIDWAY NOS*      N/A     70 N/A N/A MISG      29.98F
FRENCH FRIGATE NOT AVBL
$$

PHZ110>124-180-190100-
BUOY REPORTS

STATION/POSITION TIME  TEMP    WIND        PRES    WAVE   SWELL
                       AIR SEA DIR/SP/G            HT/PER HT/DIR
                 (UTC) (F)     (DEG/KT/KT) (MB)    (FT/S) (FT/D)
BUOY 51001       0020   73     160/ 14/ 19 1018.1
BUOY 51101       2350   72 76  140/ 10/ 14 1018.9F  14/16  13/310
BUOY 51100       NOT AVBL
BUOY 51002       0020   78 78   80/ 21/ 25 1014.5
BUOY 51003       2350   77 78  100/ 16/ 19 1016.1F   8/10   7/120
BUOY 51004       2350   70 78   60/ 14/ 17 1016.4F   9/10   7/ 90
BARBERS PT BUOY  NOT AVBL
WAIMEA BAY BUOY  0002      76                N/A     5/11   3/330
KAILUA BAY BUOY  0004      76                N/A     6/ 6   2/ 10
LANAI BUOY       0015      78                N/A     2/12   2/280
BARBERS PT 2     0009      77                N/A     5/11   3/290
PAUWELA MAUI     0009      76                N/A     6/11   3/330
HILO             0012      76                N/A     7/ 8   3/ 70
KANEOHE BAY BUOY 0006      76                N/A     4/12   2/350
HANALEI KAUAI    0022      77                N/A     8/18   5/310
KAHULUI HARBOR   0018           60/ 14/ 20   N/A
HONOLULU HARBOR  0018          110/  4/  9   N/A
KILO NALU        NOT AVBL
HILO HARBOR      0018          140/ 12/ 17   N/A
MOKUOLOE         2336   76 76   90/  5/  7 1018.4F
NAWILIWILI       0012   76 78   90/  8/ 11 1018.1
WHOTS BUOY       NOT AVBL
BUOY 51028       NOT AVBL
$$

......................KEY........................................
  SKY/WX - SKY CONDITIONS/PRESENT WEATHER
  TMP    - TEMPERATURE IN FAHRENHEIT
  DWPT   - DEWPOINT IN FAHRENHEIT
  RH     - RELATIVE HUMIDITY IN PERCENT
  WIND   - DIRECTION AND SPEED /MPH FOR ISLANDS...KTS FOR BUOYS/
  PRES   - MEAN SEA LEVEL PRESSURE IN INCHES OF HG
  VSB    - VISIBILITY IN MILES
  HX     - HEAT INDEX
  WCI    - WIND CHILL INDEX
  VRB    - VARIABLE WIND DIRECTION
  N/A    - NOT AVAILABLE




USA.gov is the U.S. government's official web portal to all federal, state and local government web resources and services.